This demonstration page uses our WeatherBlox Daily Observations layout. Learn more.

Left ArrowRight Arrow

Hourly Observations for May 14, 2022

Temp ( °F °C ) Dew Point ( °F °C ) Humidity (%) Winds ( mph kmh ) Pressure ( in mb ) Visibility ( mi km ) Precip ( " mm )
12:56 am 00:56 Clear 62 16.9 49 9.3 61 61 Calm 29.98 1015 10 16 0.00 0.00
1:56 am 01:56 Clear 61 16 46 8 59 59 Calm 29.98 1015 10 16 0.00 0.00
2:56 am 02:56 Clear 59 14.9 47 8.4 65 65 Calm 29.96 1015 10 16 0.00 0.00
3:56 am 03:56 Clear 57 13.7 47 8.5 71 71 Calm 29.97 1015 10 16 0.00 0.00
4:56 am 04:56 Clear 56 13.4 47 8.5 72 72 Calm 29.98 1015 10 16 0.00 0.00
5:56 am 05:56 Clear 56 13.1 48 8.8 75 75 Calm 29.97 1015 10 16 0.00 0.00
6:56 am 06:56 Sunny 55 12.7 49 9.5 81 81 ESE 5 7 29.99 1016 10 16 0.00 0.00
7:56 am 07:56 Sunny 59 15.1 51 10.7 75 75 Calm 29.99 1016 10 16 0.00 0.00
8:56 am 08:56 Sunny 68 20.2 54 12.2 60 60 Calm 30.00 1016 10 16 0.00 0.00
9:56 am 09:56 Sunny 77 25.1 52 10.9 41 41 Calm 29.99 1016 10 16 0.00 0.00
10:56 am 10:56 Sunny 81 27 48 8.9 32 32 VRB 6 9 29.99 1016 10 16 0.00 0.00
11:56 am 11:56 Sunny 84 28.8 43 6.2 24 24 VRB 3 6 29.98 1015 10 16 0.00 0.00
12:56 pm 12:56 Sunny 86 29.9 50 9.9 29 29 W 9 15 29.97 1015 10 16 0.00 0.00
1:56 pm 13:56 Mostly Sunny 85 29.7 52 11.2 32 32 WNW 7 11 29.95 1014 10 16 0.00 0.00
2:56 pm 14:56 Mostly Sunny 85 29.5 52 11 32 32 W 6 9 29.94 1014 10 16 0.00 0.00
3:56 pm 15:56 Partly Cloudy 87 30.4 49 9.3 27 27 W 12 19 29.92 1013 9 14 0.00 0.00
4:56 pm 16:56 Mostly Cloudy 87 30.4 51 10.3 29 29 WSW 12 19 29.90 1013 10 16 0.00 0.00
5:56 pm 17:56 Mostly Sunny 83 28.4 46 7.6 27 27 NNE 12 19 29.91 1013 10 16 0.00 0.00
6:56 pm 18:56 Mostly Sunny 80 26.8 40 4.5 24 24 WNW 6 9 29.92 1013 10 16 0.00 0.00
7:56 pm 19:56 undefined 76 24.7 39 3.9 26 26 Calm 29.94 1014 10 16 0.00 0.00
8:56 pm 20:56 Mostly Clear 74 23.2 40 4.7 30 30 N 12 19 29.97 1015 10 16 0.00 0.00
9:56 pm 21:56 Mostly Cloudy with Nearby Thunderstorms 72 22 42 5.4 34 34 NW 13 20 30.02 1017 10 16 0.00 0.00
10:02 pm 22:02 Mostly Cloudy with Thunderstorms 72 22 43 6 36 36 NNW 14 22 30.03 1017 9 14 0.00 0.00
10:56 pm 22:56 Mostly Cloudy 61 16.3 52 11.2 72 72 ENE 5 7 30.01 1016 10 16 0.00 0.00
11:56 pm 23:56 Mostly Clear 62 16.5 53 11.4 72 72 S 5 7 30.03 1017 10 16 0.00 0.00

Powered by AerisWeather